Hourly Data Report for June 16, 2003

SHERBROOKE A
QUEBEC

45°26'00.000" N
71°41'00.000" W
241.40 m
7028124
71610
YSC

Download Data

Hourly Data (June 2003)
Hourly Data Report for June 16, 2003
TIME
LST
Temp Definition
°C
Dew Point Definition
°C
Rel Hum Definition
%
Precip. Amount Definition
mm

Wind Dir Definition
10's deg

Wind Spd Definition
km/h
Visibility Definition
km
Stn Press Definition
kPa
Hmdx Definition


Wind Chill Definition


Weather Definition


00:00 4.0 3.3 95     0 15.0 99.40      
01:00 4.4 3.9 97   7 7 15.0 99.41      
02:00 3.3 2.9 97   12 6 15.0 99.43      
03:00 3.4 3.0 97     0 15.0 99.45      
04:00 2.4 1.9 96   10 4 15.0 99.49      
05:00 3.8 3.2 96   9 4 15.0 99.57      
06:00 6.8 5.3 90   8 4 15.0 99.61      
07:00 9.0 7.2 88   28 6 24.1 99.65     Clear
08:00 12.5 8.8 78     0 24.1 99.68     Clear
09:00 14.8 8.9 68   25 6 24.1 99.67     Clear
10:00 16.9 9.2 60   29 9 24.1 99.65     Clear
11:00 18.1 8.3 53   34 4 24.1 99.64     Mainly Clear
12:00 18.8 7.9 49     0 24.1 99.59     Mainly Clear
13:00 20.9 9.6 48   32 4 24.1 99.54     Mainly Clear
14:00 21.0 8.9 46   26 9 24.1 99.55     Mainly Clear
15:00 21.5 8.9 44   20 7 24.1 99.49     Mainly Clear
16:00 22.1 9.4 44   30 9 24.1 99.46     Mainly Clear
17:00 21.7 10.5 49   27 7 15.0 99.44      
18:00 20.9 8.7 46   24 6 15.0 99.43      
19:00 18.6 11.4 63     0 15.0 99.43      
20:00 13.7 10.2 79     0 15.0 99.42      
21:00 11.2 9.1 87     0 15.0 99.46      
22:00 9.6 8.4 92   13 6 15.0 99.49      
23:00 8.6 8.0 96   13 6 15.0 99.51      

Notes on Data Quality.

Legend

  • E = Estimated
  • M = Missing
  • NA = Not Available*
  • [empty] = Indicates an unobserved value
Date modified: